ALOS - Orbit

View from above orbital plane
View from above orbital plane
View from above satellite
View from above satellite

Ground track
Ground track

The orbit data is extracted from the following two-line orbital elements,

1 28931U 06002A   13141.55629633  .00001266  00000-0  27081-3 0  1549
2 28931 098.0329 207.3128 0001055 045.1139 315.0154 14.60398964390150
Epoch (UTC): 21 May 2013 13:21:04
Eccentricity: 0.0001055
inclination: 98.0329°
perigee height: 691 km
apogee height: 692 km
right ascension of ascending node: 207.3128°
argument of perigee: 45.1139°
revolutions per day: 14.60398964
mean anomaly at epoch: 315.0154°
orbit number at epoch: 39015

The dashed part of the orbit path shows where the satellite is in the earth's shadow,  

Developed and maintained by Chris Peat, Heavens-Above GmbH. Please read the updated FAQ before sending e-mail. Imprint. DLR